Regional Weather Roundup
Issued by NWS

Home | Current Version | Previous Version | Text Only | Print | Product List | Glossary On
Versions: 1 2 3 4 5 6 7 8 9 10 11 12 13 14 15 16 17 18 19 20 21 22 23 24 25 26 27 28 29 30 31 32 33 34 35 36 37 38 39 40 41 42 43 44 45 46 47 48 49 50
785
ASUS43 KOAX 271110
RWRNE

WEATHER ROUNDUP FOR NEBRASKA
NATIONAL WEATHER SERVICE OMAHA NE
600 AM CDT TUE JUN 27 2017

NOTES: SATELLITE DATA IS BEING USED TO AUGMENT CLOUD COVER ABOVE
       12000 FEET.
       "FAIR" INDICATES FEW OR NO CLOUDS BELOW 12,000 FEET WITH NO
       SIGNIFICANT WEATHER AND/OR OBSTRUCTIONS TO VISIBILITY.

  * THESE STATIONS DO NOT REPORT WEATHER SUCH AS RAIN...SNOW OR FOG.

NEZ001>004-019>022-054>056-271200-
NEBRASKA PANHANDLE

CITY           SKY/WX    TMP DP  RH WIND       PRES   REMARKS
SCOTTSBLUFF    CLOUDY    63  54  72 SE16G31   29.96F
ALLIANCE       CLOUDY    58  53  84 S16G23    29.98F
CHADRON        CLEAR     64  54  69 S26G40    29.86S
GORDON         FAIR      59  52  76 S12       29.95F
KIMBALL        CLOUDY    59  58  97 S16G25    30.01F
SIDNEY         CLOUDY    59  56  89 S20G26    30.02F
$$

NEZ057>060-069>072-079>082-271200-
SOUTHWEST NEBRASKA

CITY           SKY/WX    TMP DP  RH WIND       PRES   REMARKS
NORTH PLATTE   PTCLDY    60  57  89 SE13      30.04F
IMPERIAL       PTCLDY    60  57  89 SE12      30.03F
LEXINGTON      PTCLDY    59  56  92 SE8       30.06S
MCCOOK         MOCLDY    59  59 100 SE10      30.03F
OGALLALA       CLOUDY    62  58  87 S14G22    30.04F
$$

NEZ005>010-023>029-035>040-094-271200-
NORTH CENTRAL NEBRASKA

CITY           SKY/WX    TMP DP  RH WIND       PRES   REMARKS
VALENTINE      CLEAR     59  51  75 S17       29.99F
AINSWORTH      CLEAR     54  52  93 S13G18    30.02S
BROKEN BOW     MOCLDY    57  55  93 SE9       30.05F
O`NEILL        CLEAR     49  45  85 SE6       30.06F
ORD            CLOUDY    55  53  93 SE10      30.04F FOG
THEDFORD       CLEAR     58  55  89 S10       30.03S
$$

NEZ041-046>049-061>064-073>077-083>087-271200-
SOUTH CENTRAL NEBRASKA

CITY           SKY/WX    TMP DP  RH WIND       PRES   REMARKS
GRAND ISLAND   MOCLDY    57  57 100 S9        30.09F FOG
AURORA         FOG       56  56 100 S8        30.09F VSB 1/2
HASTINGS       CLOUDY    57  56  96 SE8       30.09F FOG
HEBRON         FOG       55  54  98 CALM      30.10S VSB 3/4
HOLDREGE       PTCLDY    57  56  94 SE8       30.06F
KEARNEY *      MOCLDY    57  54  88 SE9       30.07F
YORK           FOG       54  54 100 CALM      30.10S VSB<1/4
$$

NEZ011>018-030>034-042>045-271200-
NORTHEAST NEBRASKA

CITY           SKY/WX    TMP DP  RH WIND       PRES   REMARKS
NORFOLK        CLEAR     48  43  82 SE9       30.07F
ALBION         PTCLDY    52  46  80 SE5       30.08F
BLAIR          CLEAR     55  49  80 CALM      30.11S
FREMONT        CLEAR     54  50  87 CALM      30.11F
TEKAMAH        CLEAR     46  42  86 CALM      30.11F
WAYNE          CLEAR     48  46  91 CALM      30.09F
$$

NEZ050>053-065>068-078-088>093-271200-
SOUTHEAST NEBRASKA

CITY           SKY/WX    TMP DP  RH WIND       PRES   REMARKS
LINCOLN        FOG       57  57 100 S5        30.11F VSB 1/4
OMAHA EPPLEY   PTCLDY    56  48  74 SE5       30.12S
BEATRICE       CLEAR     55  55  99 CALM      30.10F FOG
FALLS CITY     FOG       51  51 100 CALM      30.11S VSB 1/2
NEBRASKA CITY  FOG       54  54 100 S3        30.12S VSB<1/4
PLATTSMOUTH    CLEAR     56  55  97 SE5       30.11F FOG
$$

NEZ044-045-051>053-067-271200-
OMAHA AREA

CITY           SKY/WX    TMP DP  RH WIND       PRES   REMARKS
OMAHA EPPLEY   PTCLDY    56  48  74 SE5       30.12S
BLAIR          CLEAR     55  49  80 CALM      30.11S
FREMONT        CLEAR     54  50  87 CALM      30.11F
MILLARD        CLEAR     55  54  94 CALM      30.12S
OFFUTT AFB     CLEAR     49  47  95 E5        30.11S
PLATTSMOUTH    CLEAR     56  55  97 SE5       30.11F FOG
WAHOO          FAIR      51  47  86 S3        30.11S
$$




USA.gov is the U.S. government's official web portal to all federal, state and local government web resources and services.